Location: Knobs
(40.8333°S, 175.2333°E)
Time: 01:46:23
(UTC+00:00)

DMSP B5D2-2 - Pass Details

Date: 12 June 2024
Orbit: 786 x 804 km, 98.3° (Epoch: 22 July)

Event Time Altitude Azimuth Distance (km) Brightness Sun altitude
Rises 17:06:31 0° 168° (SSE) 3,326 7.4 -28.3°
Reaches altitude 10° 17:08:51 10° 168° (SSE) 2,391 6.6 -27.9°
Enters shadow 17:13:43 75° 185° (S) 834 4.0 -27.0°
Exits shadow 17:17:48 21° 343° (NNW) 1,745 5.7 -26.2°
Drops below altitude 10° 17:19:25 10° 343° (NNW) 2,372 6.4 -25.9°
Sets 17:21:44 0° 343° (NNW) 3,296 7.2 -25.5°
